Tocumen International Airport
MPTO : now visible

Airfield :











YOU CAN JOIN US ON...

 
LOGIN :

Register | Disclaimer

   EN    FR    IT 

 









Legend :    VFR   Marginal VFR   IFR   Intensive IFR   Very Intensive IFR
Visi :
Ceiling :
>= 8 km
>= 3000ft
5 to 8 km
1000 to 3000 ft
1500m to 5 km
500 to 1000 ft
800 to 1500m
200 to 500 ft
< 800m
< 200 ft
Symbols :   Thunderstorms  Fog  Heavy snow  Heavy precipitations  Wind > 20 kt






- Airport Elevation : 135 ft
- IATA code : PTY


MPTO - Tocumen International

CURRENT METAR :
  • 250900Z 01004KT 9999 SCT018 SCT090 23/22 Q1011 NOSIG

EXPIRED METARs :
  • 250700Z 00000KT 9999 SCT017 SCT090 24/22 Q1012 NOSIG

TAF TAF MPTO
Valid from the 25 at 06:00 until the 26 at 12:00 UTC


250500Z 2506/2612 28004KT 9999 SCT018 SCT090
TEMPO 2508/2510 VRB02KT
TEMPO 2518/2522 18008KT 6000 TSRA FEW016CB SCT018 BKN080
MPZL FIR / North America



MET'MAP, your aeronautical weather chart ! - Copyright ORBIFLY December 2007 - Disclaimer

ORBIFLY MET'MAP TEAM :

Programming & Development : Alexandra Zaïnal
Concept & original design : Baudouin d'Aumeries
Assistance for programming : Marc-Olivier Méhu
Technical & hardware support : Manuel Goepfert

Contact : metmap@orbifly.com




SOURCES & CREDITS :

   NOAA       Earth
Advisory